Time,TemperatureF,DewpointF,PressureIn,WindDirection,WindDirectionDegrees,WindSpeedMPH,WindSpeedGustMPH,Humidity,HourlyPrecipIn,Conditions,Clouds,dailyrainin,SoftwareType,DateUTC
2013-01-19 00:02:00,40.0,33.0,-100.00,SW,235,12.0,17.0,77,0.00,,,-99.99,,2013-01-19 06:02:00,
2013-01-19 00:12:00,40.0,33.0,-100.00,SW,225,12.0,18.0,77,0.00,,,-99.99,,2013-01-19 06:12:00,
2013-01-19 00:22:00,40.0,33.0,-100.00,SW,230,12.0,17.0,77,0.00,,,-99.99,,2013-01-19 06:22:00,
2013-01-19 00:32:00,39.0,33.0,-100.00,SW,230,9.0,16.0,78,0.00,,,-99.99,,2013-01-19 06:32:00,
2013-01-19 00:43:00,39.0,33.0,-100.00,SW,230,9.0,16.0,78,0.00,,,-99.99,,2013-01-19 06:43:00,
2013-01-19 00:52:00,39.0,33.0,-100.00,SW,225,8.0,15.0,79,0.00,,,-99.99,,2013-01-19 06:52:00,
2013-01-19 01:02:00,38.0,33.0,-100.00,SW,215,8.0,12.0,80,0.00,,,-99.99,,2013-01-19 07:02:00,
2013-01-19 01:12:00,39.0,33.0,-100.00,SW,215,10.0,14.0,80,0.00,,,-99.99,,2013-01-19 07:12:00,
2013-01-19 01:22:00,39.0,33.0,-100.00,SSW,210,12.0,16.0,80,0.00,,,-99.99,,2013-01-19 07:22:00,
2013-01-19 01:32:00,39.0,33.0,-100.00,SW,215,9.0,15.0,80,0.00,,,-99.99,,2013-01-19 07:32:00,
2013-01-19 01:42:00,39.0,33.0,-100.00,SSW,210,7.0,15.0,80,0.00,,,-99.99,,2013-01-19 07:42:00,
2013-01-19 01:52:00,38.0,33.0,-100.00,SSW,205,8.0,12.0,81,0.00,,,-99.99,,2013-01-19 07:52:00,
2013-01-19 02:02:00,38.0,33.0,-100.00,SSW,205,8.0,12.0,81,0.00,,,-99.99,,2013-01-19 08:02:00,
2013-01-19 02:12:00,39.0,33.0,-100.00,SW,215,12.0,15.0,81,0.00,,,-99.99,,2013-01-19 08:12:00,
2013-01-19 02:22:00,39.0,33.0,-100.00,SW,225,9.0,16.0,81,0.00,,,-99.99,,2013-01-19 08:22:00,
2013-01-19 02:32:00,39.0,34.0,-100.00,SW,220,8.0,15.0,81,0.00,,,-99.99,,2013-01-19 08:32:00,
2013-01-19 02:42:00,39.0,34.0,-100.00,SW,215,11.0,17.0,81,0.00,,,-99.99,,2013-01-19 08:42:00,
2013-01-19 02:52:00,39.0,34.0,-100.00,SW,215,9.0,14.0,81,0.00,,,-99.99,,2013-01-19 08:52:00,
2013-01-19 03:02:00,39.0,34.0,-100.00,SW,215,9.0,14.0,81,0.00,,,-99.99,,2013-01-19 09:02:00,
2013-01-19 03:12:00,39.0,33.0,-100.00,SSW,210,9.0,16.0,81,0.00,,,-99.99,,2013-01-19 09:12:00,
2013-01-19 03:22:00,39.0,33.0,-100.00,SW,215,7.0,12.0,81,0.00,,,-99.99,,2013-01-19 09:22:00,
2013-01-19 03:32:00,39.0,34.0,-100.00,SSW,200,9.0,12.0,81,0.00,,,-99.99,,2013-01-19 09:32:00,
2013-01-19 03:42:00,39.0,33.0,-100.00,SSW,210,7.0,16.0,81,0.00,,,-99.99,,2013-01-19 09:42:00,
2013-01-19 03:52:00,39.0,34.0,-100.00,SW,215,8.0,14.0,81,0.00,,,-99.99,,2013-01-19 09:52:00,
2013-01-19 04:02:00,38.0,33.0,-100.00,SW,215,8.0,12.0,82,0.00,,,-99.99,,2013-01-19 10:02:00,
2013-01-19 04:12:00,38.0,33.0,-100.00,SSW,210,9.0,14.0,82,0.00,,,-99.99,,2013-01-19 10:12:00,
2013-01-19 04:22:00,38.0,33.0,-100.00,SSW,210,9.0,13.0,83,0.00,,,-99.99,,2013-01-19 10:22:00,
2013-01-19 04:32:00,38.0,33.0,-100.00,SSW,205,9.0,14.0,83,0.00,,,-99.99,,2013-01-19 10:32:00,
2013-01-19 04:42:00,38.0,33.0,-100.00,SSW,205,9.0,14.0,83,0.00,,,-99.99,,2013-01-19 10:42:00,
2013-01-19 04:52:00,38.0,33.0,-100.00,SSW,210,11.0,15.0,83,0.00,,,-99.99,,2013-01-19 10:52:00,
2013-01-19 05:03:00,38.0,33.0,-100.00,SSW,210,11.0,15.0,83,0.00,,,-99.99,,2013-01-19 11:03:00,
2013-01-19 05:12:00,38.0,33.0,-100.00,SW,215,10.0,14.0,83,0.00,,,-99.99,,2013-01-19 11:12:00,
2013-01-19 06:48:00,38.0,33.0,-100.00,SSW,210,10.0,16.0,83,0.00,,,-99.99,,2013-01-19 12:48:00,
2013-01-19 06:52:00,38.0,33.0,-100.00,SSW,210,10.0,17.0,83,0.00,,,-99.99,,2013-01-19 12:52:00,
2013-01-19 07:03:00,39.0,34.0,-100.00,SW,220,12.0,16.0,82,0.00,,,-99.99,,2013-01-19 13:03:00,
2013-01-19 07:12:00,39.0,34.0,-100.00,SSW,210,9.0,16.0,81,0.00,,,-99.99,,2013-01-19 13:12:00,
2013-01-19 07:22:00,39.0,34.0,-100.00,SW,215,10.0,16.0,81,0.00,,,-99.99,,2013-01-19 13:22:00,
2013-01-19 07:33:00,39.0,34.0,-100.00,SW,225,11.0,16.0,81,0.00,,,-99.99,,2013-01-19 13:33:00,
2013-01-19 07:42:00,39.0,34.0,-100.00,SW,225,10.0,16.0,81,0.00,,,-99.99,,2013-01-19 13:42:00,
2013-01-19 07:52:00,39.0,34.0,-100.00,SW,215,11.0,17.0,81,0.00,,,-99.99,,2013-01-19 13:52:00,
2013-01-19 08:02:00,39.0,34.0,-100.00,SW,230,12.0,18.0,81,0.00,,,-99.99,,2013-01-19 14:02:00,
2013-01-19 08:12:00,39.0,34.0,-100.00,SW,225,13.0,18.0,80,0.00,,,-99.99,,2013-01-19 14:12:00,
2013-01-19 08:23:00,39.0,34.0,-100.00,SW,220,14.0,19.0,80,0.00,,,-99.99,,2013-01-19 14:23:00,
2013-01-19 08:33:00,39.0,34.0,-100.00,SW,225,11.0,15.0,81,0.00,,,-99.99,,2013-01-19 14:33:00,
2013-01-19 08:43:00,39.0,34.0,-100.00,SW,215,9.0,17.0,81,0.00,,,-99.99,,2013-01-19 14:43:00,
2013-01-19 08:53:00,39.0,34.0,-100.00,SSW,210,9.0,19.0,81,0.00,,,-99.99,,2013-01-19 14:53:00,
2013-01-19 09:03:00,39.0,34.0,-100.00,SW,215,12.0,18.0,81,0.00,,,-99.99,,2013-01-19 15:03:00,
2013-01-19 09:12:00,39.0,34.0,-100.00,SW,215,12.0,17.0,81,0.00,,,-99.99,,2013-01-19 15:12:00,
2013-01-19 09:22:00,40.0,35.0,-100.00,SW,215,12.0,18.0,80,0.00,,,-99.99,,2013-01-19 15:22:00,
2013-01-19 09:33:00,40.0,35.0,-100.00,SSW,210,10.0,17.0,80,0.00,,,-99.99,,2013-01-19 15:33:00,
2013-01-19 09:43:00,41.0,35.0,-100.00,SSW,205,12.0,17.0,79,0.00,,,-99.99,,2013-01-19 15:43:00,
2013-01-19 09:53:00,41.0,35.0,-100.00,SSW,205,12.0,19.0,79,0.00,,,-99.99,,2013-01-19 15:53:00,
2013-01-19 10:03:00,41.0,35.0,-100.00,SSW,200,11.0,19.0,78,0.00,,,-99.99,,2013-01-19 16:03:00,
2013-01-19 10:13:00,41.0,35.0,-100.00,SW,225,14.0,18.0,78,0.00,,,-99.99,,2013-01-19 16:13:00,
2013-01-19 10:23:00,41.0,35.0,-100.00,WSW,240,14.0,19.0,78,0.00,,,-99.99,,2013-01-19 16:23:00,
2013-01-19 10:33:00,42.0,35.0,-100.00,SW,220,16.0,23.0,77,0.00,,,-99.99,,2013-01-19 16:33:00,
2013-01-19 10:43:00,42.0,35.0,-100.00,SW,220,16.0,23.0,77,0.00,,,-99.99,,2013-01-19 16:43:00,
2013-01-19 10:53:00,42.0,35.0,-100.00,SW,230,16.0,22.0,77,0.00,,,-99.99,,2013-01-19 16:53:00,
2013-01-19 11:02:00,42.0,35.0,-100.00,SW,230,14.0,20.0,77,0.00,,,-99.99,,2013-01-19 17:02:00,
2013-01-19 11:19:00,42.0,35.0,-100.00,SW,230,14.0,19.0,77,0.00,,,-99.99,,2013-01-19 17:19:00,
2013-01-19 11:27:00,42.0,36.0,-100.00,SW,230,11.0,21.0,77,0.00,,,-99.99,,2013-01-19 17:27:00,
2013-01-19 11:53:00,42.0,36.0,-100.00,SW,235,19.0,24.0,76,0.00,,,-99.99,,2013-01-19 17:53:00,
2013-01-19 12:09:00,43.0,36.0,-100.00,SW,230,15.0,25.0,76,0.00,,,-99.99,,2013-01-19 18:09:00,
2013-01-19 12:25:00,44.0,36.0,-100.00,SW,230,17.0,23.0,74,0.00,,,-99.99,,2013-01-19 18:25:00,
2013-01-19 12:34:00,45.0,37.0,-100.00,WSW,245,20.0,25.0,71,0.00,,,-99.99,,2013-01-19 18:34:00,
2013-01-19 12:45:00,45.0,37.0,-100.00,WSW,245,20.0,25.0,71,0.00,,,-99.99,,2013-01-19 18:45:00,
2013-01-19 12:54:00,46.0,37.0,-100.00,WSW,245,20.0,24.0,68,0.00,,,-99.99,,2013-01-19 18:54:00,
2013-01-19 13:07:00,46.0,37.0,-100.00,WSW,245,20.0,24.0,68,0.00,,,-99.99,,2013-01-19 19:07:00,
2013-01-19 13:19:00,47.0,37.0,-100.00,WSW,245,19.0,25.0,67,0.00,,,-99.99,,2013-01-19 19:19:00,
2013-01-19 13:29:00,47.0,37.0,-100.00,WSW,245,19.0,28.0,66,0.00,,,-99.99,,2013-01-19 19:29:00,
2013-01-19 13:38:00,48.0,36.0,-100.00,WSW,250,18.0,23.0,64,0.00,,,-99.99,,2013-01-19 19:38:00,
2013-01-19 13:45:00,48.0,36.0,-100.00,WSW,240,20.0,25.0,63,0.00,,,-99.99,,2013-01-19 19:45:00,
2013-01-19 13:54:00,48.0,36.0,-100.00,WSW,240,20.0,25.0,63,0.00,,,-99.99,,2013-01-19 19:54:00,
2013-01-19 14:09:00,50.0,37.0,-100.00,WSW,250,12.0,25.0,62,0.00,,,-99.99,,2013-01-19 20:09:00,
2013-01-19 14:18:00,50.0,37.0,-100.00,West,260,12.0,22.0,61,0.00,,,-99.99,,2013-01-19 20:18:00,
2013-01-19 14:24:00,50.0,36.0,-100.00,West,270,14.0,21.0,58,0.00,,,-99.99,,2013-01-19 20:24:00,
2013-01-19 14:38:00,50.0,36.0,-100.00,West,275,13.0,19.0,57,0.00,,,-99.99,,2013-01-19 20:38:00,
2013-01-19 14:46:00,51.0,36.0,-100.00,WSW,250,11.0,22.0,57,0.00,,,-99.99,,2013-01-19 20:46:00,
2013-01-19 14:54:00,50.0,35.0,-100.00,West,270,14.0,23.0,54,0.00,,,-99.99,,2013-01-19 20:54:00,
2013-01-19 15:06:00,50.0,35.0,-100.00,West,270,14.0,23.0,54,0.00,,,-99.99,,2013-01-19 21:06:00,
2013-01-19 15:14:00,50.0,35.0,-100.00,West,270,15.0,24.0,55,0.00,,,-99.99,,2013-01-19 21:14:00,
2013-01-19 15:25:00,50.0,35.0,-100.00,West,275,16.0,23.0,55,0.00,,,-99.99,,2013-01-19 21:25:00,
2013-01-19 15:42:00,50.0,35.0,-100.00,West,275,16.0,23.0,55,0.00,,,-99.99,,2013-01-19 21:42:00,
2013-01-19 15:55:00,48.0,35.0,-100.00,West,275,15.0,21.0,59,0.00,,,-99.99,,2013-01-19 21:55:00,
2013-01-19 16:12:00,48.0,35.0,-100.00,West,270,16.0,22.0,59,0.00,,,-99.99,,2013-01-19 22:12:00,
2013-01-19 16:25:00,47.0,35.0,-100.00,West,275,12.0,17.0,62,0.00,,,-99.99,,2013-01-19 22:25:00,
2013-01-19 16:34:00,47.0,35.0,-100.00,West,260,7.0,19.0,62,0.00,,,-99.99,,2013-01-19 22:34:00,
2013-01-19 16:46:00,47.0,35.0,-100.00,WSW,250,15.0,20.0,63,0.00,,,-99.99,,2013-01-19 22:46:00,
2013-01-19 16:54:00,45.0,35.0,-100.00,West,270,13.0,20.0,65,0.00,,,-99.99,,2013-01-19 22:54:00,
2013-01-19 17:14:00,44.0,34.0,-100.00,West,260,11.0,16.0,67,0.00,,,-99.99,,2013-01-19 23:14:00,
2013-01-19 17:25:00,44.0,34.0,-100.00,West,260,12.0,16.0,69,0.00,,,-99.99,,2013-01-19 23:25:00,
2013-01-19 17:34:00,43.0,34.0,-100.00,West,275,13.0,17.0,71,0.00,,,-99.99,,2013-01-19 23:34:00,
2013-01-19 17:45:00,43.0,34.0,-100.00,West,275,13.0,17.0,71,0.00,,,-99.99,,2013-01-19 23:45:00,
2013-01-19 17:58:00,41.0,34.0,-100.00,West,270,13.0,17.0,74,0.00,,,-99.99,,2013-01-19 23:58:00,
2013-01-19 18:08:00,42.0,35.0,-100.00,West,275,16.0,21.0,75,0.00,,,-99.99,,2013-01-20 00:08:00,
2013-01-19 18:15:00,42.0,34.0,-100.00,West,280,15.0,21.0,75,0.00,,,-99.99,,2013-01-20 00:15:00,
2013-01-19 18:35:00,40.0,33.0,-100.00,West,275,16.0,20.0,75,0.00,,,-99.99,,2013-01-20 00:35:00,
2013-01-19 18:45:00,40.0,33.0,-100.00,West,275,16.0,20.0,75,0.00,,,-99.99,,2013-01-20 00:45:00,
2013-01-19 18:53:00,39.0,33.0,-100.00,West,275,14.0,17.0,78,0.00,,,-99.99,,2013-01-20 00:53:00,
2013-01-19 19:03:00,39.0,33.0,-100.00,West,275,14.0,17.0,78,0.00,,,-99.99,,2013-01-20 01:03:00,
2013-01-19 19:19:00,38.0,33.0,-100.00,West,275,12.0,18.0,80,0.00,,,-99.99,,2013-01-20 01:19:00,
2013-01-19 19:35:00,37.0,33.0,-100.00,West,275,14.0,24.0,84,0.00,,,-99.99,,2013-01-20 01:35:00,
2013-01-19 19:45:00,37.0,33.0,-100.00,West,275,14.0,24.0,84,0.00,,,-99.99,,2013-01-20 01:45:00,
2013-01-19 19:57:00,39.0,33.0,-100.00,West,275,21.0,26.0,81,0.00,,,-99.99,,2013-01-20 01:57:00,
2013-01-19 20:07:00,39.0,33.0,-100.00,West,275,21.0,28.0,80,0.00,,,-99.99,,2013-01-20 02:07:00,
2013-01-19 20:25:00,39.0,31.0,-100.00,WNW,295,21.0,30.0,75,0.00,,,-99.99,,2013-01-20 02:25:00,
2013-01-19 20:35:00,38.0,30.0,-100.00,WNW,295,22.0,35.0,72,0.00,,,-99.99,,2013-01-20 02:35:00,
2013-01-19 20:44:00,38.0,30.0,-100.00,WNW,295,22.0,35.0,72,0.00,,,-99.99,,2013-01-20 02:44:00,
2013-01-19 20:55:00,34.0,26.0,-100.00,NW,310,21.0,40.0,71,0.00,,,-99.99,,2013-01-20 02:55:00,
2013-01-19 21:08:00,31.0,24.0,-100.00,NW,305,27.0,45.0,72,0.00,,,-99.99,,2013-01-20 03:08:00,
2013-01-19 21:14:00,30.0,22.0,-100.00,NW,305,24.0,42.0,71,0.00,,,-99.99,,2013-01-20 03:14:00,
2013-01-19 21:25:00,29.0,22.0,-100.00,NW,310,19.0,36.0,74,0.00,,,-99.99,,2013-01-20 03:25:00,
2013-01-19 21:37:00,28.0,19.0,-100.00,WNW,290,25.0,39.0,70,0.00,,,-99.99,,2013-01-20 03:37:00,
2013-01-19 21:45:00,27.0,18.0,-100.00,WNW,295,21.0,40.0,68,0.00,,,-99.99,,2013-01-20 03:45:00,
2013-01-19 21:54:00,27.0,17.0,-100.00,NW,305,26.0,38.0,65,0.00,,,-99.99,,2013-01-20 03:54:00,
2013-01-19 22:04:00,26.0,17.0,-100.00,WNW,295,23.0,39.0,67,0.00,,,-99.99,,2013-01-20 04:04:00,
2013-01-19 22:15:00,25.0,17.0,-100.00,WNW,295,28.0,34.0,70,0.00,,,-99.99,,2013-01-20 04:15:00,
2013-01-19 22:24:00,24.0,16.0,-100.00,WNW,290,26.0,37.0,71,0.00,,,-99.99,,2013-01-20 04:24:00,
2013-01-19 22:35:00,24.0,16.0,-100.00,WNW,290,26.0,37.0,71,0.00,,,-99.99,,2013-01-20 04:35:00,
2013-01-19 22:44:00,22.0,14.0,-100.00,WNW,285,23.0,37.0,70,0.00,,,-99.99,,2013-01-20 04:44:00,
2013-01-19 22:54:00,22.0,14.0,-100.00,WNW,285,26.0,38.0,69,0.00,,,-99.99,,2013-01-20 04:54:00,
2013-01-19 23:04:00,21.0,13.0,-100.00,WNW,295,25.0,35.0,69,0.00,,,-99.99,,2013-01-20 05:04:00,
2013-01-19 23:12:00,21.0,12.0,-100.00,WNW,295,27.0,37.0,68,0.00,,,-99.99,,2013-01-20 05:12:00,
2013-01-19 23:22:00,20.0,12.0,-100.00,WNW,285,23.0,36.0,69,0.00,,,-99.99,,2013-01-20 05:22:00,
2013-01-19 23:32:00,20.0,11.0,-100.00,WNW,290,24.0,30.0,70,0.00,,,-99.99,,2013-01-20 05:32:00,
2013-01-19 23:42:00,19.0,11.0,-100.00,WNW,290,22.0,35.0,69,0.00,,,-99.99,,2013-01-20 05:42:00,
2013-01-19 23:53:00,19.0,10.0,-100.00,WNW,295,19.0,34.0,69,0.00,,,-99.99,,2013-01-20 05:53:00,